Flag Weather past 2 weeks in Kenora, Ontario, Canada

Now
-2 °F

Overcast.


Feels Like: -10 °F
Forecast: -4 / 13 °F
Wind: 3 mph from Southeast

Location: Kenora

Current Time: Nov 28, 2014 at 5:23:39 AM

Latest Report: Nov 28, 2014 at 5:00 AM


Visibility: 15 mi

Pressure: 30.18 "Hg

Humidity: 77%

Dew point: -8 °F

Location of KenoraLocation

Historic Weather in Kenora — Graph

°F

Kenora temperature yesterday

Maximum temperature yesterday: 0 °F (at 9:00 PM)
Minimum temperature yesterday: -15 °F (at 7:00 AM)
Average temperature yesterday: -7 °F

Past Weeks' High & Low Weather Summary

 TemperatureHumidityPressure
High36 °F (Nov 23, 11:00 AM)100% (Nov 23, 7:00 AM)30.58 "Hg (Nov 23, 7:00 AM)
Low-15 °F (Nov 27, 7:00 AM)49% (Nov 13, 3:00 PM)29.43 "Hg (Nov 23, 4:00 AM)
Average11 °F81%29.98 "Hg
* Reported Nov 13 4:00 AM — Nov 28 4:00 AM, Kenora, Weather by CustomWeather, © 2014

Note: Actual official high and low records may vary slightly from our data, if they occured in-between our weather recording intervals... More about our weather records

Advertising

Kenora weather history for previous 24 hours

 ConditionsComfort  
Time TempWeatherWind HumidityBarometerVisibility
4:00 AM
Nov 28
-2 °FPassing clouds.5 mph77%30.20 "Hg15 mi
3:00 AM-2 °FPartly cloudy.5 mph77%30.22 "Hg15 mi
2:00 AM0 °FPartly cloudy.5 mph78%30.22 "Hg15 mi
1:00 AM0 °FOvercast.9 mph78%30.23 "Hg15 mi
12:00 AM0 °FOvercast.9 mph78%30.26 "Hg15 mi
11:00 PM
Nov 27
0 °FOvercast.9 mph78%30.28 "Hg15 mi
10:00 PM0 °FOvercast.10 mph78%30.29 "Hg15 mi
9:00 PM0 °FMostly cloudy.10 mph71%30.30 "Hg15 mi
8:00 PM-2 °FMostly cloudy.9 mph77%30.33 "Hg15 mi
7:00 PM-4 °FMostly cloudy.6 mph84%30.35 "Hg15 mi
6:00 PM-2 °FMostly cloudy.7 mph77%30.36 "Hg15 mi
5:00 PM-2 °FOvercast.10 mph77%30.40 "Hg15 mi
4:00 PM-2 °FPartly sunny.7 mph77%30.42 "Hg15 mi
3:00 PM-2 °FPartly sunny.9 mph71%30.43 "Hg15 mi
2:00 PM-2 °FScattered clouds.9 mph65%30.45 "Hg15 mi
1:00 PM-2 °FPassing clouds.9 mph65%30.47 "Hg15 mi
12:00 PM-4 °FPassing clouds.5 mph71%30.50 "Hg15 mi
11:00 AM-6 °FSunny.8 mph77%30.53 "Hg15 mi
10:00 AM-9 °FSunny.8 mph84%30.54 "Hg15 mi
9:00 AM-13 °FSunny.5 mph83%30.55 "Hg15 mi
8:00 AM-15 °FSunny.5 mph76%30.54 "Hg15 mi
7:00 AM-15 °FClear.5 mph83%30.55 "Hg15 mi
6:00 AM-13 °FClear.6 mph76%30.56 "Hg15 mi
5:00 AM-13 °FClear.5 mph76%30.58 "Hg15 mi
Weather by CustomWeather, © 2014

See weather overviewHow to use our weather pages